This demonstration page uses our WeatherBlox Daily Observations layout. Learn more.

Left ArrowRight Arrow

39.51506, -84.39828

Hourly Observations for October 25, 2015

Temp ( °F °C ) Dew Point ( °F °C ) Humidity (%) Winds ( mph kmh ) Pressure ( in mb ) Visibility ( mi km ) Precip ( " mm )
12:15 am 00:15 Clear 60 15.3 51 10.7 74 74 NW 7 11 30.09 1019 10 16 N/A
12:35 am 00:35 Clear 57 14.1 49 9.7 75 75 WNW 5 7 30.09 1019 10 16 N/A
12:55 am 00:55 Clear 57 13.8 50 10.1 79 79 W 3 6 30.09 1019 10 16 N/A
1:15 am 01:15 Mostly Cloudy 57 13.8 52 10.9 83 83 N N/A 30.09 1019 10 16 N/A
1:35 am 01:35 Mostly Cloudy 57 13.8 52 10.9 83 83 W 5 7 30.09 1019 10 16 N/A
1:55 am 01:55 Mostly Cloudy 57 13.8 51 10.5 81 81 WNW 6 9 30.09 1019 10 16 N/A
2:15 am 02:15 Cloudy 57 13.8 51 10.3 80 80 WNW 8 13 30.12 1020 10 16 N/A
2:35 am 02:35 Cloudy 57 13.8 50 10.2 79 79 WNW 6 9 30.12 1020 10 16 N/A
2:55 am 02:55 Cloudy 57 13.8 51 10.5 81 81 WNW 5 7 30.12 1020 10 16 N/A
3:15 am 03:15 Cloudy 57 13.8 51 10.4 80 80 WNW 5 7 30.15 1021 10 16 N/A
3:35 am 03:35 Cloudy 57 13.8 50 10.2 79 79 NW 7 11 30.15 1021 10 16 N/A
3:55 am 03:55 Cloudy 57 13.8 50 9.8 77 77 NW 9 15 30.15 1021 10 16 N/A
4:15 am 04:15 Cloudy 57 13.8 50 10.1 79 79 NW 8 13 30.18 1022 10 16 N/A
4:35 am 04:35 Cloudy 57 13.8 51 10.3 80 80 NW 5 7 30.18 1022 10 16 N/A
4:55 am 04:55 Cloudy 57 13.8 51 10.5 81 81 NW 5 7 30.18 1022 10 16 N/A
5:15 am 05:15 Cloudy 57 13.8 51 10.5 81 81 NNW 5 7 30.18 1022 10 16 N/A
5:35 am 05:35 Cloudy 57 13.8 51 10.5 81 81 NNW 6 9 30.18 1022 10 16 N/A
5:55 am 05:55 Cloudy 55 12.6 49 9.2 80 80 NNW 5 7 30.21 1023 10 16 N/A
6:15 am 06:15 Mostly Cloudy 55 12.5 47 8.5 77 77 NNW 8 13 30.21 1023 10 16 N/A
6:35 am 06:35 Cloudy 55 12.5 47 8.4 76 76 N 7 11 30.24 1024 10 16 N/A
6:55 am 06:55 Mostly Cloudy 55 12.5 47 8.5 77 77 NNW 6 9 30.24 1024 10 16 N/A
7:15 am 07:15 Partly Cloudy 55 12.5 47 8.4 76 76 N 6 9 30.24 1024 10 16 N/A
7:35 am 07:35 Partly Cloudy 55 12.5 48 8.8 78 78 NNW 3 6 30.24 1024 10 16 N/A
7:55 am 07:55 Mostly Cloudy 55 12.5 48 9 79 79 NW 5 7 30.24 1024 10 16 N/A
8:15 am 08:15 Mostly Cloudy 55 12.5 48 9 79 79 N 5 7 30.24 1024 10 16 N/A
8:35 am 08:35 Partly Cloudy 55 12.5 48 8.8 78 78 NNW 5 7 30.27 1025 10 16 N/A
8:55 am 08:55 Sunny 55 12.5 48 8.8 78 78 N 5 7 30.27 1025 10 16 N/A
9:15 am 09:15 Sunny 55 12.5 47 8.6 77 77 N 7 11 30.30 1026 10 16 N/A
9:35 am 09:35 Sunny 55 12.5 48 8.7 78 78 N 3 6 30.30 1026 10 16 N/A
9:55 am 09:55 Sunny 55 12.5 47 8.2 75 75 N 7 11 30.30 1026 10 16 N/A
10:15 am 10:15 Sunny 55 12.5 46 8 74 74 N 8 13 30.33 1027 10 16 N/A
10:35 am 10:35 Mostly Cloudy 55 12.5 46 7.8 73 73 NNE 6 9 30.33 1027 10 16 N/A
10:55 am 10:55 Mostly Cloudy 55 12.5 45 7 69 69 NNE 12 19 30.33 1027 10 16 N/A
11:15 am 11:15 Mostly Cloudy 57 13.8 44 6.8 63 63 NE 9 15 30.33 1027 10 16 N/A
11:35 am 11:35 Cloudy 57 13.8 43 6.3 61 61 NNE 9 15 30.33 1027 10 16 N/A
11:55 am 11:55 Mostly Cloudy 57 13.8 43 5.9 59 59 N 10 17 30.33 1027 10 16 N/A
12:15 pm 12:15 Mostly Cloudy 57 13.8 43 5.9 59 59 NNE 7 11 30.33 1027 10 16 N/A
12:35 pm 12:35 Cloudy 57 13.8 43 5.9 59 59 N 7 11 30.33 1027 10 16 N/A
12:55 pm 12:55 Cloudy 57 13.8 42 5.6 58 58 N 7 11 30.33 1027 10 16 N/A
1:15 pm 13:15 Cloudy 57 13.8 41 5.1 56 56 NNE 8 13 30.33 1027 10 16 N/A
1:35 pm 13:35 Partly Cloudy 60 15.3 42 5.7 53 53 N 7 11 30.33 1027 10 16 N/A
1:55 pm 13:55 Sunny 57 13.9 39 3.9 51 51 NNE 7 11 30.33 1027 7 11 N/A
2:15 pm 14:15 Partly Cloudy 60 15.3 40 4.5 49 49 N 9 15 30.33 1027 10 16 N/A
2:35 pm 14:35 Partly Cloudy 60 15.4 38 3.5 45 45 N 9 15 30.30 1026 10 16 N/A
2:55 pm 14:55 Sunny 60 15.3 38 3.4 45 45 ENE 7 11 30.30 1026 10 16 N/A
3:15 pm 15:15 Sunny 60 15.3 38 3.4 45 45 NNE 5 7 30.30 1026 10 16 N/A
3:35 pm 15:35 Sunny 61 16.1 38 3.5 43 43 ENE 9 15 30.30 1026 10 16 N/A
3:55 pm 15:55 Sunny 62 16.4 38 3.5 42 42 NE 9 15 30.30 1026 10 16 N/A
4:15 pm 16:15 Sunny 61 16.3 37 2.5 40 40 NE 8 13 30.30 1026 10 16 N/A
4:35 pm 16:35 Sunny 61 16.3 36 2.2 39 39 NE 8 13 30.30 1026 10 16 N/A
4:55 pm 16:55 Sunny 61 16 35 1.9 39 39 NE 9 15 30.30 1026 10 16 N/A
5:15 pm 17:15 Sunny 60 15.3 36 2.4 42 42 NNE 7 11 30.30 1026 10 16 N/A
5:35 pm 17:35 Sunny 61 16 37 2.8 41 41 NE 5 7 30.33 1027 10 16 N/A
5:55 pm 17:55 Sunny 60 15.3 37 2.6 43 43 NNE 8 13 30.33 1027 10 16 N/A
6:15 pm 18:15 Sunny 60 15.3 37 2.8 43 43 NNE 7 11 30.33 1027 10 16 N/A
6:35 pm 18:35 Sunny 57 13.8 36 2.4 46 46 N 5 7 30.33 1027 10 16 N/A
6:55 pm 18:55 Clear 57 13.8 37 3 48 48 NNE 5 7 30.33 1027 10 16 N/A
7:15 pm 19:15 Clear 55 12.5 37 2.8 52 52 NNE 5 7 30.33 1027 10 16 N/A
7:35 pm 19:35 Clear 55 12.5 38 3.3 54 54 NNE 5 7 30.33 1027 10 16 N/A
7:55 pm 19:55 Clear 55 12.5 39 3.8 56 56 N N/A 30.33 1027 10 16 N/A
8:15 pm 20:15 Clear 55 12.5 42 5.5 63 63 N N/A 30.33 1027 10 16 N/A
8:35 pm 20:35 Clear 50 9.8 39 4.1 68 68 N N/A 30.36 1028 10 16 N/A
8:55 pm 20:55 Clear 49 9.6 42 5.8 77 77 N N/A 30.36 1028 10 16 N/A
9:15 pm 21:15 Clear 49 9.6 44 6.4 81 81 N N/A 30.36 1028 10 16 N/A
9:35 pm 21:35 Clear 47 8.2 41 5 80 80 NNE 3 6 30.36 1028 10 16 N/A
9:55 pm 21:55 Clear 47 8.2 41 5.1 81 81 N N/A 30.36 1028 10 16 N/A
10:15 pm 22:15 Clear 44 6.7 39 3.9 83 83 N 3 6 30.36 1028 10 16 N/A
10:35 pm 22:35 Clear 44 6.7 39 4 83 83 N N/A 30.36 1028 10 16 N/A
10:55 pm 22:55 Clear 43 6.1 38 3.5 84 84 NNE 3 6 30.39 1029 10 16 N/A
11:15 pm 23:15 Clear 43 5.9 38 3.3 84 84 N 7 11 30.39 1029 10 16 N/A
11:35 pm 23:35 Clear 43 6 38 3.6 85 85 NE 3 6 30.39 1029 10 16 N/A
11:55 pm 23:55 Clear 43 6.1 38 3.5 84 84 NNE 3 6 30.39 1029 10 16 N/A

Powered by AerisWeather